| time (UTC) | temp F | wind direction | speed MPH | gust MPH | rain 1hr in | rain 24hr in | rain mn in | humidity % | barometer mb |
| 20260505020113 | 45 | 208 | 4.0 | 12.0 | 0.00 | 0.34 | 0.00 | 76 | 1001.8 |
| 20260505013103 | 45 | 230 | 3.0 | 10.0 | 0.00 | 0.36 | 0.00 | 74 | 1001.8 |
| 20260505010053 | 45 | 221 | 2.0 | 9.0 | 0.00 | 0.36 | 0.00 | 73 | 1001.8 |
| 20260505003043 | 45 | 211 | 2.0 | 5.0 | 0.00 | 0.36 | 0.00 | 70 | 1001.8 |
| 20260505000036 | 45 | 214 | 2.0 | 6.0 | 0.00 | 0.36 | 0.00 | 66 | 1001.8 |
| 20260504233026 | 45 | 199 | 1.0 | 5.0 | 0.00 | 0.36 | 0.00 | 59 | 1001.8 |
| 20260504230118 | 45 | 180 | 1.0 | 6.0 | 0.00 | 0.36 | 0.00 | 55 | 1001.9 |
| 20260504223107 | 46 | 198 | 2.0 | 7.0 | 0.00 | 0.36 | 0.00 | 53 | 1001.9 |
| 20260504220117 | 45 | 195 | 2.0 | 6.0 | 0.00 | 0.36 | 0.00 | 57 | 1001.9 |
| 20260504213107 | 45 | 202 | 1.0 | 4.0 | 0.00 | 0.36 | 0.36 | 54 | 1001.9 |
| 20260504210037 | 45 | 202 | 1.0 | 3.0 | 0.00 | 0.36 | 0.36 | 56 | 1001.9 |
| 20260504203028 | 47 | 202 | 1.0 | 3.0 | 0.00 | 0.36 | 0.36 | 54 | 1001.7 |
| 20260504200116 | 49 | 202 | 1.0 | 3.0 | 0.00 | 0.36 | 0.36 | 50 | 1001.7 |
| 20260504193106 | 51 | 220 | 1.0 | 4.0 | 0.00 | 0.36 | 0.36 | 45 | 1001.6 |
| 20260504190057 | 54 | 234 | 2.0 | 9.0 | 0.00 | 0.36 | 0.36 | 41 | 1001.4 |
| 20260504183047 | 56 | 246 | 3.0 | 7.0 | 0.00 | 0.36 | 0.36 | 37 | 1001.5 |
| 20260504180038 | 58 | 270 | 5.0 | 9.0 | 0.00 | 0.36 | 0.36 | 35 | 1001.3 |
| 20260504173029 | 59 | 276 | 7.0 | 18.0 | 0.00 | 0.36 | 0.36 | 35 | 1001.2 |
| 20260504160122 | 62 | 271 | 7.0 | 18.0 | 0.00 | 0.36 | 0.36 | 46 | 1000.2 |
| 20260504070105 | 50 | 180 | 0.0 | 3.0 | 0.00 | 0.35 | 0.35 | 90 | 1000.4 |
| 20260504050113 | 44 | 180 | 0.0 | 1.0 | 0.05 | 0.33 | 0.33 | 95 | 1001.2 |
| 20260504043043 | 44 | 180 | 0.0 | 1.0 | 0.10 | 0.30 | 0.30 | 95 | 1001.3 |
| 20260504040033 | 43 | 180 | 0.0 | 1.0 | 0.12 | 0.27 | 0.27 | 94 | 1001.5 |
| 20260504033023 | 43 | 180 | 0.0 | 2.0 | 0.14 | 0.20 | 0.20 | 93 | 1001.7 |
| 20260504030136 | 43 | 180 | 0.0 | 2.0 | 0.11 | 0.14 | 0.14 | 92 | 1001.8 |
| 20260504023106 | 43 | 180 | 0.0 | 2.0 | 0.05 | 0.05 | 0.05 | 91 | 1002.1 |